Regional Weather Roundup
Issued by NWS Charleston, SC

Home | Current Version | Previous Version | Text Only | Print | Product List | Glossary On
Versions: 1 2 3 4 5 6 7 8 9 10 11 12 13 14 15 16 17 18 19 20 21 22 23 24 25 26 27 28 29 30 31 32 33 34 35 36 37 38 39 40 41 42 43 44 45 46 47 48 49 50
000
ASUS42 KCHS 290027
RWRCHS

REGIONAL WEATHER ROUNDUP
NATIONAL WEATHER SERVICE CHARLESTON SC
800 PM EDT SUN MAY 28 2017

NOTE: "FAIR" INDICATES FEW OR NO CLOUDS BELOW 12,000 FEET WITH NO
SIGNIFICANT WEATHER AND/OR OBSTRUCTIONS TO VISIBILITY.

NOT ALL STATIONS ARE QUALITY CONTROLLED. USE DATA WITH CAUTION...
ESPECIALLY DEWPOINT OBSERVATIONS.

SCZ027-030-031-034>040-042>050-290100-
...SOUTHEAST SOUTH CAROLINA...

CITY           SKY/WX    TMP DP  RH WIND       PRES   REMARKS
N CHARLESTON   PTCLDY    83  74  74 S8        29.86R
6HR MIN TEMP:  83; 6HR MAX TEMP:  91;

WATERFRONT PRK   N/A     81  76  85 SW7       29.84F
JOHNS ISLAND   FAIR      81  75  83 SW6       29.87R
PINOPOLIS        N/A     84  75  74 SW7       29.79S HX  92
MONCKS CORNER  FAIR      81  70  69 SW3       29.87R
SUMMERVILLE    FAIR      81  73  78 CALM      29.88R
BEAUFORT MCAS  CLEAR     86  71  60 W7        29.87R HX  91
6HR MIN TEMP:  86; 6HR MAX TEMP:  91;

BEAUFORT ARPT  FAIR      86  70  58 SW6       29.87R HX  90
HILTON HEAD IS CLEAR     88  68  51 SW5       29.88R HX  91
WALTERBORO     CLEAR     82  70  65 W5        29.88R
ALLENDALE      FAIR      86  70  58 CALM      29.86S HX  90

...SOUTHERN MIDLANDS AND PEE DEE...

CITY           SKY/WX    TMP DP  RH WIND       PRES   REMARKS
GEORGETOWN     FAIR      79  73  83 SW7       29.88R
KINGSTREE      FAIR      82  68  61 SW3       29.86R
ORANGEBURG     PTCLDY    83  72  69 SW5       29.85S
6HR MIN TEMP:  83; 6HR MAX TEMP:  90;

BARNWELL       FAIR      84  73  70 CALM      29.87S HX  91
AIKEN          FAIR      81  70  69 W3        29.91R
MANNING        FAIR      82  73  74 S3G17     29.86R
COLUMBIA       CLOUDY    80  68  66 SW3       29.85R
6HR MIN TEMP:  79; 6HR MAX TEMP:  93; 6HR PCP: TRACE;

SUMTER         MOCLDY    73  70  88 CALM      29.85F
6HR MIN TEMP:  76; 6HR MAX TEMP:  92; 6HR PCP:  0.27;

FLORENCE       TSTM      71  68  90 SW9G30    29.86R FOG
6HR MIN TEMP:  81; 6HR MAX TEMP:  91; 6HR PCP: TRACE;

MYRTLE BEACH   PTCLDY    82  73  74 S9        29.84F
N MYRTLE BEACH CLEAR     79  74  84 SW14      29.82F
6HR MIN TEMP:  79; 6HR MAX TEMP:  85;


$$

GAZ063-065-086>088-099>101-113>116-118-119-134>141-150-290100-
...SOUTHEAST GEORGIA...

CITY           SKY/WX    TMP DP  RH WIND       PRES   REMARKS
SAVANNAH ARPT  PTCLDY    89  65  44 SW6       29.87R HX  91
6HR MIN TEMP:  89; 6HR MAX TEMP:  97;

HUNTER AAF     CLEAR     88  73  60 SW6       29.84S HX  96
6HR MIN TEMP:  88; 6HR MAX TEMP:  93;

FORT STEWART   CLEAR     88  66  47 SW8       29.85S HX  90
6HR MIN TEMP:  88; 6HR MAX TEMP:  93;

STATESBORO     PTCLDY    86  68  53 W5        29.89S
SYLVANIA       MOCLDY    85  71  63 CALM      29.89S HX  90
CLAXTON        FAIR      84  70  61 CALM      29.89R

...CSRA...CENTRAL AND FAR SOUTHEAST GEORGIA...

CITY           SKY/WX    TMP DP  RH WIND       PRES   REMARKS
THOMSON        CLOUDY    84  71  64 NW6       29.93S
AUGUSTA-BUSH   PTCLDY    87  71  58 W6        29.85S HX  93
6HR MIN TEMP:  87; 6HR MAX TEMP:  92;

AUGUSTA-DANIEL PTCLDY    86  69  56 VRB3      29.87S HX  90
SWAINSBORO     FAIR      86  70  58 W6        29.91R HX  90
VIDALIA        PTCLDY    86  68  54 CALM      29.90R
EASTMAN        FAIR      85  58  39 W3        29.93R
HAZLEHURST     FAIR      86  68  54 SW3       29.88S HX  90
ALMA           CLEAR     89  64  43 SW5       29.88F HX  90
6HR MIN TEMP:  89; 6HR MAX TEMP:  94;

WAYCROSS       CLEAR     88  71  55 SW5       29.89F HX  94
JESUP          FAIR      88  63  42 CALM      29.89R
BAXLEY         FAIR      88  70  55 SW5       29.89R HX  92
BRUNSWICK      CLEAR     88  68  51 SW7       29.89F HX  91
SAINT SIMONS   CLEAR     90  67  46 SW9       29.89F HX  93
6HR MIN TEMP:  88; 6HR MAX TEMP:  94;


$$

SCZ027-028-034-036>038-045-046-048>050-GAZ119-141-290100-
...LAKE AND SUPPLEMENTAL COASTAL OBSERVATIONS...

STATION/POSITION TIME  TEMP    WIND        PRES    WAVE   SWELL
                       AIR SEA DIR/SP/G            HT/PER HT/PER/DIR
                 (UTC) (F)     (DEG/KT/KT) (MB)    (FT/S) (FT/S/D)
WINYAH BAY       2345   82     220/ 11     1010.0S
LAKE MURRAY      0020   77     250/  2/  2 1010.5
ACE BASIN NERRS  2330   87     230/  2     1011.0S
FORT PULASKI     0000   87     240/  4/  6 1011.6
SAPELO ISLAND    0000   88     200/  7     1012.0

$$

ANZ835-935-AMZ111-154-330-350-352-354-370-450-454-472-290100-
...C-MAN AND BUOY OBSERVATIONS...

STATION/POSITION TIME  TEMP    WIND        PRES    WAVE   SWELL
                       AIR SEA DIR/SP/G            HT/PER HT/PER/DIR
                 (UTC) (F)     (DEG/KT/KT) (MB)    (FT/S) (FT/S/D)
BUOY 41004       0010   78 76  210/ 14/ 17 1011.0
BUOY 41008       2350   79 79  170/ 14/ 16 1012.1F   2/ 3   2/110/ 7
FOLLY BEACH CMAN 0000   79     210/ 12/ 13 1011.8F
CAPERS NEARSHORE 0008   81 77  220/ 14/ 19 1010.8F
FRIPP NEARSHORE  0008   80 79  220/ 16/ 21 1011.0S


STATION/POSITION TIME  TEMP    WIND        PRES    WAVE   SWELL
                       AIR SEA DIR/SP/G            HT/PER HT/PER/DIR
                 (UTC) (F)     (DEG/KT/KT) (MB)    (FT/S) (FT/S/D)
5E ST. MARYS GA  0000      80                N/A     2/ 3
FRYING PAN BUOY  0010   77 75  220/ 17/ 21 1011.0
BUOY 41025       2350   77 76  230/ 17/ 21 1009.3R   5/ 6   2/100/10
CAPE LOOKOUT NC  0000   76     220/ 13/ 16 1009.8R
BUOY 41002       2350   77 77  210/ 12/ 14 1014.6S   4/ 6   2/230/ 6
BUOY 41010       0010   80 80  210/  6/  8 1015.8
ST AUGUSTINE FL  0000   78 79  160/ 12/ 14 1015.3F


$$



USA.gov is the U.S. government's official web portal to all federal, state and local government web resources and services.